Regional Weather Roundup
Issued by NWS

Home | Current Version | Previous Version | Graphics & Text | Print | Product List | Glossary On
Versions: 1 2 3 4 5 6 7 8 9 10 11 12 13 14 15 16 17 18 19 20 21 22 23 24 25 26 27 28 29 30 31 32 33 34 35 36 37 38 39 40 41 42 43 44 45 46 47 48 49 50
000
ASUS43 KMPX 240710
RWRMN
WEATHER ROUNDUP FOR MINNESOTA
NATIONAL WEATHER SERVICE TWIN CITIES/CHANHASSEN MN
200 AM CDT SUN MAY 24 2015


NOTE: "FAIR" INDICATES FEW OR NO CLOUDS BELOW 12,000 FEET WITH NO
SIGNIFICANT WEATHER AND/OR OBSTRUCTIONS TO VISIBILITY. N/A MEANS
CURRENT SKY AND/OR WEATHER CONDITIONS ARE NOT AVAILABLE.

MNZ060>063-068>070-240800-
   Twin Cities Metro

CITY           SKY/WX    TMP DP  RH WIND       PRES   REMARKS
TWIN CITIES    MOCLDY    62  48  60 E6        30.11S
ST PAUL        CLOUDY    62  47  57 E6        30.12S
CRYSTAL        MOCLDY    59  48  67 CALM      30.10F
BLAINE         MOCLDY    63  50  63 E6        30.11F
LAKEVILLE      CLOUDY    57  46  67 CALM      30.11S
EDEN PRAIRIE   MOCLDY    61  46  57 E8        30.09F
SOUTH ST PAUL  CLOUDY    63  45  51 E5        30.11F
LAKE ELMO      CLOUDY    59  48  67 NE3       30.13F
$$
MNZ001>005-007-008-013>017-022>024-027-028-240800-
   Northwest Minnesota

CITY           SKY/WX    TMP DP  RH WIND       PRES   REMARKS
BEMIDJI        MOCLDY    48  42  80 CALM      30.12S
HALLOCK        PTCLDY    52  45  76 S6        30.09S
ROSEAU         CLEAR     55  46  71 SW6       30.10S
WARROAD        CLEAR     57  46  67 SW7       30.10S
THIEF RVR FALL PTCLDY    54  43  66 CALM      30.12S
CROOKSTON      PTCLDY    55  45  67 SE3       30.11S
FOSSTON        MOCLDY    48  43  81 CALM      30.13S
DETROIT LAKES  PTCLDY    52  46  82 CALM      30.12F
MOORHEAD       MOCLDY    55  46  71 E3        30.10F
PARK RAPIDS    MOCLDY    51  45  79 CALM      30.12S
MAHNOMEN       FAIR      51  46  80 E5        30.11F
$$
MNZ006-009>011-018-025>026-240800-
   North Central Minnesota

CITY           SKY/WX    TMP DP  RH WIND       PRES   REMARKS
BAUDETTE       CLEAR     52  43  71 SW6       30.10S
FLAG ISLAND    CLEAR     61  43  51 W15       30.06S
INTL FALLS     CLEAR     51  42  71 SW6       30.10F
WASKISH        PTCLDY    52  46  82 CALM      30.12S
BIG FORK       CLEAR     46  43  87 CALM      30.13F
LONGVILLE      MOCLDY    46  45  93 CALM      30.13S
GRAND RAPIDS   PTCLDY    45  39  81 S3        30.14S
CRANE LAKE     CLEAR     46  41  81 CALM      30.13S
ORR            CLEAR     50  43  76 CALM      30.11S
COOK           CLEAR     50  43  76 CALM      30.14S
WALKER         FAIR      47  44  88 CALM      30.13S
$$
MNZ012-019>021-037-240800-
   Northeast Minnesota

CITY           SKY/WX    TMP DP  RH WIND       PRES   REMARKS
DULUTH         PTCLDY    52  42  69 CALM      30.15R
ELY            CLEAR     54  43  66 SW3       30.14R
HIBBING        CLEAR     42  38  85 CALM      30.14S
EVELETH        CLEAR     45  43  93 CALM      30.15S
DULUTH HARBOR  PTCLDY    57  46  67 W3        30.15R
TWO HARBORS    CLEAR     59  46  63 NW6       30.12S
GRAND MARAIS     N/A     42  38  85 CALM      30.09F
G MARAIS ARPRT CLEAR     57  39  51 W7        30.13F
$$
MNZ029>031-032-039>041-046>048-054>057-064-240800-
   West Central Minnesota

CITY           SKY/WX    TMP DP  RH WIND       PRES   REMARKS
FERGUS FALLS   CLOUDY    63  46  55 E6        30.10F
WHEATON        CLOUDY    57  46  67 E7        30.11R
MORRIS         CLOUDY    57  46  67 E9        30.07F
ALEXANDRIA     MOCLDY    58  46  64 E8        30.11F
ELBOW LAKE     CLOUDY    60  47  62 E8        30.09F
WADENA         MOCLDY    55  48  76 E3        30.11F
GLENWOOD       MOCLDY    57  48  72 E8        30.10F
APPLETON       MOCLDY    57  48  72 E5        30.09R
BENSON         MOCLDY    59  46  63 SE3       30.08S
ORTONVILLE     MOCLDY    57  46  67 E8        30.08R
MADISON        CLOUDY    59  48  67 SE8       30.09R
WILLMAR        MOCLDY    61  48  63 E9        30.09F
$$
MNZ033>034-036-042>043-049>051-058-059-240800-
   Central Minnesota

CITY           SKY/WX    TMP DP  RH WIND       PRES   REMARKS
ST CLOUD       MOCLDY    59  47  64 E3        30.10F
SAUK CENTRE    PTSUNNY   58  47  66 E6        30.10F
PAYNESVILLE    CLOUDY    57  46  66 E6        30.10F
AITKIN         CLOUDY    52  46  82 CALM      30.12F
PINE RIVER     CLOUDY    52  46  82 CALM      30.16S
BRAINERD       CLOUDY    56  49  77 CALM      30.13F
STAPLES        CLOUDY    57  46  67 CALM      30.12F
LONG PRAIRIE   FAIR      55  45  67 NE3       30.11F
LITTLE FALLS   MOCLDY    59  45  58 E3        30.11F
LITCHFIELD     CLOUDY    59  52  77 E6        30.11F
BUFFALO        MOCLDY    58  49  71 E3        30.11F
MAPLE LAKE     MOCLDY    58  51  78 E5        30.11F
$$
MNZ037-044-045-052-053-240800-
   East Central Minnesota

CITY           SKY/WX    TMP DP  RH WIND       PRES   REMARKS
PRINCETON      CLOUDY    61  48  63 E6        30.12F
MORA           CLOUDY    55  45  67 CALM      30.15F
CAMBRIDGE      CLOUDY    63  48  59 CALM      30.11F
RUSH CITY      CLOUDY    59  48  66 CALM      30.14S
MOOSE LAKE     CLOUDY    48  45  87 CALM      30.13S
HINCKLEY       CLOUDY    55  52  88 CALM      30.14S
CLOQUET        PTCLDY    48  43  81 NW3       30.14S
MCGREGOR       MOCLDY    52  46  82 CALM      30.14F
$$
MNZ071>073-080-081-089-090-097-098-240800-
   Southwest Minnesota

CITY           SKY/WX    TMP DP  RH WIND       PRES   REMARKS
MONTEVIDEO     CLOUDY    59  50  72 S7        30.09R
GRANITE FALLS  CLOUDY    59  49  68 E5        30.09S
CANBY          CLOUDY    55  49  82 CALM      30.10R
MARSHALL       CLOUDY    61  48  63 SE6       30.07S
REDWOOD FALLS  CLOUDY    62  50  64 E7        30.08S
OLIVIA         CLOUDY    59  45  58 SE7       30.07F
PIPESTONE      CLOUDY    61  54  77 S5        30.08R
WINDOM         LGT RAIN  63  54  72 CALM      30.09S
WORTHINGTON    CLOUDY    59  54  82 SE13      30.09R
JACKSON        CLOUDY    61  55  82 E3        30.10R
TRACY          CLOUDY    61  52  72 S6        30.08S
SLAYTON        CLOUDY    59  54  82 CALM      30.10R
$$
MNZ065>067-074>077-082>085-091>093-240800-
   South Central Minnesota

CITY           SKY/WX    TMP DP  RH WIND       PRES   REMARKS
MANKATO        CLOUDY    61  52  72 E7        30.09F
NEW ULM        CLOUDY    63  48  59 E6        30.09S
ST JAMES       CLOUDY    64  54  68 E6        30.09F
FAIRMONT       CLOUDY    63  48  59 E6        30.09S
GLENCOE        CLOUDY    61  50  68 CALM      30.09F
FARIBAULT      CLOUDY    61  52  72 NE5       30.10F
OWATONNA       CLOUDY    63  52  67 SE7       30.10F
WASECA         CLOUDY    59  50  72 E7        30.10F
ALBERT LEA     CLOUDY    63  52  67 SE3       30.10F
$$
MNZ078>079-086>088-094>096-240800-
   Southeast Minnesota

CITY           SKY/WX    TMP DP  RH WIND       PRES   REMARKS
ROCHESTER      CLOUDY    62  49  62 SE8       30.13S
RED WING       CLOUDY    63  46  55 CALM      30.11S
STANTON        CLOUDY    62  48  60 CALM      30.10S
DODGE CENTER   CLOUDY    64  48  55 SE9       30.12S
WINONA         CLOUDY    59  54  82 CALM      30.14R
AUSTIN         CLOUDY    63  50  63 SE3       30.11S
PRESTON        CLOUDY    63  48  58 CALM      30.14S
$$
ABBREVIATIONS USED IN REMARKS
   TC - TEMPERATURES IN CELSIUS
  WCI - WIND CHILL INDEX
   HX - HEAT INDEX
  VSB - VISIBILITY
$$



USA.gov is the U.S. government's official web portal to all federal, state and local government web resources and services.